EW8829 Weather Reports


time (UTC)temp
C
wind
direction
speed
KPH
gust
KPH
rain 1hr
cm
rain 24hr
cm
rain mn
cm
humidity
%
barometer
mb
20260503013700 5 17 6.4 6.4 0.00 0.00 0.00 68 1012.2
20260503013158 5 44 1.6 3.2 0.00 0.00 0.00 70 1012.1
20260503012655 5 45 3.2 4.8 0.00 0.00 0.00 70 1012.1
20260503012152 5 32 4.8 4.8 0.00 0.00 0.00 68 1012.0
20260503011648 5 28 3.2 4.8 0.00 0.00 0.00 67 1011.9
20260503011145 5 31 4.8 6.4 0.00 0.00 0.00 65 1012.1
20260503010641 5 31 4.8 6.4 0.00 0.00 0.00 65 1012.0
20260503010139 5 36 3.2 4.8 0.00 0.00 0.00 65 1012.0
20260503005636 5 33 4.8 4.8 0.00 0.00 0.00 65 1011.8
20260503005133 5 28 1.6 6.4 0.00 0.00 0.00 64 1012.1
20260503004629 5 317 1.6 3.2 0.00 0.00 0.00 65 1011.7
20260503004128 5 11 0.0 6.4 0.00 0.00 0.00 63 1011.6
20260503003624 5 31 4.8 4.8 0.00 0.00 0.00 61 1011.6
20260503003121 5 81 3.2 3.2 0.00 0.00 0.00 61 1011.7
20260503002618 5 43 3.2 4.8 0.00 0.00 0.00 62 1011.6
20260503002115 6 29 4.8 4.8 0.00 0.00 0.00 61 1011.9
20260503001611 6 42 4.8 6.4 0.00 0.00 0.00 59 1011.9
20260503001109 6 45 1.6 6.4 0.00 0.00 0.00 60 1011.7
20260503000606 6 39 3.2 4.8 0.00 0.00 0.00 58 1011.6
20260503000103 6 40 4.8 6.4 0.00 0.00 0.00 58 1011.7
20260502235559 6 355 4.8 6.4 0.00 0.00 0.00 58 1011.6
20260502235057 6 38 4.8 6.4 0.00 0.00 0.00 55 1011.5
20260502234553 6 11 6.4 9.7 0.00 0.00 0.00 55 1011.5
20260502234051 6 28 4.8 4.8 0.00 0.00 0.00 55 1011.4
20260502233551 6 32 4.8 4.8 0.00 0.00 0.00 56 1011.5
20260502233049 7 23 6.4 6.4 0.00 0.00 0.00 55 1011.2
20260502232544 7 54 4.8 8.0 0.00 0.00 0.00 56 1011.3
20260502232042 7 59 4.8 4.8 0.00 0.00 0.00 55 1011.2
20260502231539 7 31 3.2 6.4 0.00 0.00 0.00 53 1011.1
20260502231037 7 12 6.4 6.4 0.00 0.00 0.00 55 1011.2
20260502230535 7 20 6.4 6.4 0.00 0.00 0.00 54 1011.1
20260502230033 7 52 4.8 6.4 0.00 0.00 0.00 56 1011.2
20260502225528 7 32 3.2 4.8 0.00 0.00 0.00 56 1011.2
20260502225026 7 20 3.2 4.8 0.00 0.00 0.00 57 1010.9
20260502224522 7 29 1.6 3.2 0.00 0.00 0.00 62 1011.2
20260502224019 7 337 1.6 3.2 0.00 0.00 0.00 63 1010.7
20260502223517 7 79 3.2 4.8 0.00 0.00 0.00 60 1010.9
20260502223015 7 89 8.0 8.0 0.00 0.00 0.00 60 1010.7
20260502222512 7 67 3.2 3.2 0.00 0.00 0.00 59 1010.8
20260502222008 7 87 4.8 4.8 0.00 0.00 0.00 59 1011.2
20260502221503 7 339 0.0 3.2 0.00 0.00 0.00 57 1011.2
20260502221001 7 79 1.6 3.2 0.00 0.00 0.00 59 1011.3
20260502220456 7 82 3.2 3.2 0.00 0.00 0.00 60 1010.9
20260502215953 7 78 3.2 4.8 0.00 0.00 0.00 62 1011.1
20260502215451 7 52 3.2 3.2 0.00 0.00 0.00 62 1011.2
20260502214948 7 44 3.2 4.8 0.00 0.00 0.00 61 1010.9
20260502214444 6 27 3.2 6.4 0.00 0.00 0.00 63 1010.9
20260502213942 6 71 3.2 4.8 0.00 0.00 0.00 67 1010.9
20260502213438 7 36 4.8 6.4 0.00 0.00 0.00 63 1011.1
20260502212937 7 17 6.4 8.0 0.00 0.00 0.00 62 1010.9
20260502212435 7 12 6.4 8.0 0.00 0.00 0.00 57 1010.9
20260502211932 7 37 4.8 6.4 0.00 0.00 0.00 54 1010.7
20260502211428 7 24 3.2 6.4 0.00 0.00 0.00 53 1010.6
20260502210926 7 26 4.8 6.4 0.00 0.00 0.00 56 1010.9
20260502210422 7 291 1.6 14.5 0.00 0.00 0.00 54 1010.5
20260502205919 7 279 9.7 16.1 0.00 0.00 0.00 52 1010.5
20260502205415 7 319 4.8 8.0 0.00 0.00 0.00 52 1010.5
20260502204913 8 32 6.4 6.4 0.00 0.00 0.00 52 1010.7
20260502204410 8 280 1.6 4.8 0.00 0.00 0.00 53 1010.5
20260502203908 8 106 0.0 4.8 0.00 0.00 0.00 51 1010.7
20260502203405 8 14 3.2 6.4 0.00 0.00 0.00 50 1010.7
20260502202900 8 29 3.2 6.4 0.00 0.00 0.00 51 1010.7
20260502202358 8 48 6.4 6.4 0.00 0.00 0.00 51 1010.8
20260502201855 8 31 4.8 4.8 0.00 0.00 0.00 53 1010.7
20260502201351 8 20 4.8 6.4 0.00 0.00 0.00 50 1010.9
20260502200848 8 92 3.2 4.8 0.00 0.00 0.00 51 1010.7
20260502200343 8 48 3.2 6.4 0.00 0.00 0.00 49 1010.8
20260502195842 8 60 6.4 8.0 0.00 0.00 0.00 52 1010.9
20260502195338 8 77 8.0 8.0 0.00 0.00 0.00 49 1010.8
20260502194835 8 21 4.8 8.0 0.00 0.00 0.00 51 1010.9
20260502194332 8 78 3.2 6.4 0.00 0.00 0.00 48 1011.1
20260502193828 8 6 4.8 8.0 0.00 0.00 0.00 47 1011.3
20260502193325 8 67 3.2 4.8 0.00 0.00 0.00 49 1011.4
20260502192821 8 65 9.7 11.3 0.00 0.00 0.00 49 1011.3
20260502192318 8 339 4.8 6.4 0.00 0.00 0.00 49 1011.3
20260502191815 8 333 4.8 4.8 0.00 0.00 0.00 48 1011.2
20260502191313 8 151 4.8 6.4 0.00 0.00 0.00 49 1011.3
20260502190810 8 38 3.2 4.8 0.00 0.00 0.00 44 1011.4
20260502190307 8 101 0.0 6.4 0.00 0.00 0.00 45 1011.3
20260502185802 8 103 4.8 6.4 0.00 0.00 0.00 47 1011.3
20260502185258 9 96 3.2 6.4 0.00 0.00 0.00 48 1011.4
20260502184755 9 66 3.2 3.2 0.00 0.00 0.00 44 1011.5
20260502184251 8 109 1.6 4.8 0.00 0.00 0.00 45 1011.7
20260502183748 8 74 8.0 9.7 0.00 0.00 0.00 45 1011.6
20260502183244 8 278 3.2 9.7 0.00 0.00 0.00 45 1011.6
20260502182739 8 31 1.6 6.4 0.00 0.00 0.00 45 1011.7
20260502182235 8 356 4.8 6.4 0.00 0.00 0.00 46 1011.8
20260502181732 8 12 1.6 14.5 0.00 0.00 0.00 46 1011.6
20260502181231 8 75 8.0 8.0 0.00 0.00 0.00 48 1011.7
20260502180728 8 352 3.2 9.7 0.00 0.00 0.00 44 1011.3
20260502180226 8 44 6.4 11.3 0.00 0.00 0.00 45 1011.6
20260502170150 8 44 4.8 6.4 0.00 0.00 0.00 50 1011.7
20260502164136 10 113 4.8 4.8 0.00 0.00 0.00 49 1011.7
20260502163632 8 326 3.2 6.4 0.00 0.00 0.00 50 1011.6
20260502163129 9 31 6.4 8.0 0.00 0.00 0.00 48 1011.9
20260502162626 10 73 8.0 11.3 0.00 0.00 0.00 44 1011.7
20260502162123 8 12 3.2 9.7 0.00 0.00 0.00 45 1011.9
20260502161620 8 86 6.4 8.0 0.00 0.00 0.00 45 1011.8
20260502161117 8 70 11.3 12.9 0.00 0.00 0.00 47 1011.7
20260502160615 10 340 4.8 6.4 0.00 0.00 0.00 47 1011.7
20260502160113 10 88 0.0 14.5 0.00 0.00 0.00 41 1011.9
20260502152028 8 41 6.4 12.9 0.00 0.00 0.00 44 1012.2
20260502151524 9 18 9.7 11.3 0.00 0.00 0.00 43 1012.1
20260502151022 10 26 6.4 9.7 0.00 0.00 0.00 48 1012.2
20260502150519 9 6 8.0 9.7 0.00 0.00 0.00 46 1011.8
20260502130404 6 1 3.2 14.5 0.00 0.00 0.00 68 1012.5
20260502123347 6 61 8.0 11.3 0.00 0.00 0.00 78 1012.2
20260502122844 5 36 3.2 9.7 0.00 0.00 0.00 76 1012.4
20260502122339 5 29 8.0 9.7 0.00 0.00 0.00 82 1012.5
20260502121838 5 38 4.8 9.7 0.00 0.00 0.00 84 1012.5
20260502121335 5 34 4.8 9.7 0.00 0.00 0.00 84 1012.2
20260502120832 5 24 4.8 8.0 0.00 0.00 0.00 85 1012.6
20260502120328 4 36 3.2 6.4 0.00 0.00 0.00 86 1012.4
20260502115826 5 286 3.2 8.0 0.00 0.00 0.00 86 1012.4
20260502115323 5 355 3.2 6.4 0.00 0.00 0.00 88 1012.2
20260502114820 5 313 1.6 8.0 0.00 0.00 0.00 89 1012.4
20260502114316 5 305 3.2 6.4 0.00 0.00 0.00 90 1012.2
20260502113813 5 11 3.2 8.0 0.00 0.00 0.00 91 1012.4
20260502113311 5 358 1.6 4.8 0.00 0.00 0.00 98 1012.2
20260502112809 5 95 6.4 6.4 0.00 0.00 0.00 99 1012.5
20260502112306 5 99 0.0 4.8 0.00 0.00 0.00 99 1012.4
20260502111803 4 86 3.2 3.2 0.00 0.00 0.00 99 1012.2
20260502111301 3 94 1.6 3.2 0.00 0.00 0.00 99 1012.2
20260502110758 3 71 3.2 3.2 0.00 0.00 0.00 99 1012.4
20260502110256 2 41 3.2 4.8 0.00 0.00 0.00 99 1012.3
20260502105754 3 57 3.2 4.8 0.00 0.00 0.00 99 1012.1
20260502105250 3 41 3.2 3.2 0.00 0.00 0.00 99 1012.1
20260502104748 3 8 0.0 1.6 0.00 0.00 0.00 99 1012.0
20260502104245 2 50 1.6 3.2 0.00 0.00 0.00 99 1012.0
20260502103743 3 31 3.2 3.2 0.00 0.00 0.00 99 1012.0
20260502103240 3 72 3.2 4.8 0.00 0.00 0.00 99 1011.9
20260502102737 3 42 3.2 3.2 0.00 0.00 0.00 99 1011.7
20260502102233 3 83 3.2 4.8 0.00 0.00 0.00 99 1011.7
20260502101731 3 37 3.2 4.8 0.00 0.00 0.00 99 1011.5
20260502101229 3 70 4.8 4.8 0.00 0.00 0.00 99 1011.6
20260502100727 3 44 3.2 4.8 0.00 0.00 0.00 99 1011.7
20260502100225 3 49 4.8 8.0 0.00 0.00 0.00 99 1011.7
20260502091159 3 72 3.2 3.2 0.00 0.00 0.00 99 1011.1
20260502090657 3 60 1.6 3.2 0.00 0.00 0.00 99 1011.1
20260502090154 3 46 1.6 3.2 0.00 0.00 0.00 99 1010.9
20260502071055 3 25 0.0 3.2 0.00 0.00 0.00 99 1010.6
20260502070553 3 55 3.2 3.2 0.00 0.00 0.00 99 1010.6
20260502070050 3 8 1.6 3.2 0.00 0.00 0.00 99 1010.4
20260502065549 3 74 1.6 3.2 0.00 0.00 0.00 99 1010.7
20260502065046 3 38 1.6 3.2 0.00 0.00 0.00 99 1010.6
20260502064545 3 85 3.2 3.2 0.00 0.00 0.00 99 1010.6
20260502064041 3 85 1.6 3.2 0.00 0.00 0.00 99 1010.5
20260502063539 4 45 3.2 4.8 0.00 0.00 0.00 99 1010.4
20260502063037 4 38 3.2 3.2 0.00 0.00 0.00 99 1010.6
20260502062534 4 39 3.2 4.8 0.00 0.00 0.00 99 1010.6
20260502062032 4 51 3.2 3.2 0.00 0.00 0.00 98 1010.6
20260502061530 4 53 3.2 4.8 0.00 0.00 0.00 98 1010.6
20260502061026 4 36 4.8 4.8 0.00 0.00 0.00 98 1010.8
20260502060521 4 29 3.2 4.8 0.00 0.00 0.00 98 1010.9
20260502060018 4 13 4.8 6.4 0.00 0.00 0.00 98 1010.6
20260502055516 4 18 4.8 6.4 0.00 0.00 0.00 98 1010.5
20260502055015 4 48 3.2 6.4 0.00 0.00 0.00 98 1010.8
20260502054513 4 73 3.2 4.8 0.00 0.00 0.00 99 1010.7
20260502054009 4 111 0.0 6.4 0.00 0.00 0.00 99 1010.5
20260502053506 4 73 4.8 4.8 0.00 0.00 0.00 99 1010.5
20260502053005 4 78 6.4 6.4 0.00 0.00 0.00 99 1010.1
20260502052502 5 67 4.8 4.8 0.00 0.00 0.00 99 1010.6
20260502052000 5 28 6.4 6.4 0.00 0.00 0.00 99 1010.5
20260502051458 5 23 6.4 8.0 0.00 0.00 0.00 99 1010.3
20260502050955 5 18 4.8 8.0 0.00 0.00 0.00 99 1010.4
20260502050451 5 25 4.8 6.4 0.00 0.00 0.00 99 1010.6
20260502045949 5 32 3.2 4.8 0.00 0.00 0.00 99 1010.6
20260502045445 5 48 3.2 6.4 0.00 0.00 0.00 99 1010.5
20260502044942 5 40 4.8 4.8 0.00 0.00 0.00 99 1010.7
20260502044438 5 61 3.2 4.8 0.00 0.00 0.00 99 1010.6
20260502043935 5 60 3.2 4.8 0.00 0.00 0.00 99 1010.7
20260502043433 5 75 3.2 4.8 0.00 0.00 0.00 99 1010.6
20260502042932 5 74 3.2 3.2 0.00 0.00 0.00 99 1010.6
20260502042430 5 79 1.6 3.2 0.00 0.00 0.00 99 1010.5
20260502041927 5 68 3.2 3.2 0.00 0.00 0.00 99 1010.6
20260502041425 5 60 3.2 4.8 0.00 0.00 0.00 99 1010.3
20260502040921 5 66 3.2 4.8 0.00 0.00 0.00 99 1010.4
20260502040418 6 38 3.2 4.8 0.00 0.00 0.00 99 1010.4
20260502035914 6 41 3.2 4.8 0.00 0.33 0.33 99 1010.4
20260502035411 6 58 3.2 4.8 0.00 0.33 0.33 99 1010.3
20260502034908 6 76 4.8 4.8 0.00 0.33 0.33 99 1010.2
20260502034407 6 302 0.0 1.6 0.00 0.33 0.33 99 1010.5
20260502033905 6 32 1.6 3.2 0.05 0.33 0.33 99 1010.0
20260502033402 6 75 1.6 3.2 0.05 0.33 0.33 99 1010.0
20260502032859 6 72 1.6 4.8 0.00 0.33 0.33 99 1010.0
20260502032354 6 74 3.2 3.2 0.05 0.33 0.33 99 1010.2
20260502031853 6 45 3.2 4.8 0.05 0.33 0.33 99 1010.2
20260502031351 6 60 1.6 6.4 0.05 0.33 0.33 99 1010.3
20260502030848 6 116 3.2 6.4 0.13 0.33 0.33 99 1010.1
20260502030347 6 62 4.8 6.4 0.18 0.30 0.30 99 1010.5
20260502025844 6 69 1.6 3.2 0.13 0.28 0.28 99 1010.5
20260502025341 6 46 3.2 3.2 0.00 0.28 0.28 99 1010.2
20260502024839 6 55 3.2 3.2 0.05 0.28 0.28 99 1010.3
20260502024337 6 55 1.6 3.2 0.05 0.28 0.28 99 1010.3
20260502023834 6 45 3.2 3.2 0.00 0.25 0.25 99 1010.2
20260502023332 6 46 3.2 3.2 0.00 0.25 0.25 99 1010.3
20260502022830 6 55 3.2 3.2 0.00 0.25 0.25 99 1010.3
20260502022326 6 75 3.2 3.2 0.00 0.25 0.25 99 1010.3
20260502021822 6 62 3.2 3.2 0.05 0.25 0.25 99 1010.5
20260502021320 6 66 3.2 3.2 0.13 0.25 0.25 99 1010.5
20260502020817 6 60 3.2 3.2 0.05 0.25 0.25 99 1010.3
20260502020315 6 40 3.2 3.2 0.13 0.23 0.23 99 1010.5
20260502015811 6 46 0.0 1.6 0.05 0.23 0.23 99 1010.4
20260502015308 6 52 3.2 3.2 0.05 0.23 0.23 99 1010.2
20260502014806 6 27 1.6 3.2 0.05 0.23 0.23 99 1010.2
20260502014303 6 36 3.2 4.8 0.00 0.20 0.20 99 1010.2
20260502013758 6 37 3.2 4.8 0.00 0.20 0.20 99 1010.1